contact:dominique.lefevre@mio.osupytheas.fr, maurice.libes@osupytheas.fr, didier.mallarino@osupytheas.fr
Project:EMSO http://www.emso-fr.org/EMSO-France
Depth: 2436.0 m
Title:EMSO Ligure Ouest : Data MII capteur MICROCAT
DateTime_Computer,Latitude,Longitude,Temperature,Conductivity,Pressure,DateTime_Instrument
DateTime_Computer,Latitude,Longitude,degC,S m-1,dbar,DateTime_Instrument
2021-10-28T00:01:27Z,42.805,6.029,13.3001,4.60026,2470.427,2021-10-28T02:02:51Z
2021-10-28T00:04:30Z,42.805,6.029,13.2996,4.60023,2470.437,2021-10-28T02:05:54Z
2021-10-28T00:07:33Z,42.805,6.029,13.3003,4.60026,2470.437,2021-10-28T02:08:58Z
2021-10-28T00:10:36Z,42.805,6.029,13.2996,4.60023,2470.46,2021-10-28T02:12:01Z
2021-10-28T00:13:39Z,42.805,6.029,13.3002,4.60025,2470.46,2021-10-28T02:15:04Z
2021-10-28T00:16:42Z,42.805,6.029,13.2992,4.60024,2470.427,2021-10-28T02:18:07Z
2021-10-28T00:19:46Z,42.805,6.029,13.2996,4.60029,2470.45,2021-10-28T02:21:10Z
2021-10-28T00:22:49Z,42.805,6.029,13.3000,4.60023,2470.437,2021-10-28T02:24:13Z
2021-10-28T00:25:52Z,42.805,6.029,13.2997,4.60021,2470.413,2021-10-28T02:27:16Z
2021-10-28T00:28:55Z,42.805,6.029,13.3003,4.60027,2470.427,2021-10-28T02:30:19Z
2021-10-28T00:31:58Z,42.805,6.029,13.2997,4.60022,2470.46,2021-10-28T02:33:23Z
2021-10-28T00:35:01Z,42.805,6.029,13.2996,4.60027,2470.474,2021-10-28T02:36:26Z
2021-10-28T00:38:04Z,42.805,6.029,13.2996,4.60031,2470.437,2021-10-28T02:39:29Z
2021-10-28T00:41:07Z,42.805,6.029,13.3000,4.60028,2470.437,2021-10-28T02:42:32Z
2021-10-28T00:44:11Z,42.805,6.029,13.3004,4.60033,2470.427,2021-10-28T02:45:35Z
2021-10-28T00:47:14Z,42.805,6.029,13.3000,4.60042,2470.413,2021-10-28T02:48:38Z
2021-10-28T00:50:17Z,42.805,6.029,13.3002,4.60041,2470.413,2021-10-28T02:51:41Z
2021-10-28T00:53:20Z,42.805,6.029,13.3003,4.60031,2470.413,2021-10-28T02:54:44Z
2021-10-28T00:56:23Z,42.805,6.029,13.3004,4.60046,2470.427,2021-10-28T02:57:48Z
2021-10-28T00:59:26Z,42.805,6.029,13.2996,4.60024,2470.437,2021-10-28T03:00:51Z
2021-10-28T01:02:29Z,42.805,6.029,13.3004,4.60024,2470.45,2021-10-28T03:03:54Z
2021-10-28T01:05:32Z,42.805,6.029,13.2997,4.60042,2470.46,2021-10-28T03:06:57Z
2021-10-28T01:08:36Z,42.805,6.029,13.3006,4.60042,2470.437,2021-10-28T03:10:00Z
2021-10-28T01:11:39Z,42.805,6.029,13.3004,4.60038,2470.427,2021-10-28T03:13:03Z
2021-10-28T01:14:42Z,42.805,6.029,13.2996,4.60021,2470.39,2021-10-28T03:16:06Z
2021-10-28T01:17:45Z,42.805,6.029,13.3001,4.60045,2470.437,2021-10-28T03:19:09Z
2021-10-28T01:20:48Z,42.805,6.029,13.3004,4.60039,2470.413,2021-10-28T03:22:12Z
2021-10-28T01:23:51Z,42.805,6.029,13.3000,4.60043,2470.413,2021-10-28T03:25:16Z
2021-10-28T01:26:54Z,42.805,6.029,13.2995,4.60026,2470.427,2021-10-28T03:28:19Z
2021-10-28T01:29:57Z,42.805,6.029,13.2998,4.60022,2470.413,2021-10-28T03:31:22Z
2021-10-28T01:33:01Z,42.805,6.029,13.3003,4.60032,2470.39,2021-10-28T03:34:25Z
2021-10-28T01:36:04Z,42.805,6.029,13.3000,4.60025,2470.413,2021-10-28T03:37:28Z
2021-10-28T01:39:07Z,42.805,6.029,13.2996,4.60022,2470.45,2021-10-28T03:40:31Z
2021-10-28T01:42:10Z,42.805,6.029,13.2998,4.60039,2470.474,2021-10-28T03:43:34Z
2021-10-28T01:45:13Z,42.805,6.029,13.3000,4.60032,2470.413,2021-10-28T03:46:37Z
2021-10-28T01:48:16Z,42.805,6.029,13.2999,4.60027,2470.39,2021-10-28T03:49:41Z
2021-10-28T01:51:19Z,42.805,6.029,13.2997,4.60027,2470.404,2021-10-28T03:52:44Z
2021-10-28T01:54:22Z,42.805,6.029,13.2996,4.60029,2470.45,2021-10-28T03:55:47Z
2021-10-28T01:57:25Z,42.805,6.029,13.2996,4.60023,2470.427,2021-10-28T03:58:50Z
2021-10-28T02:00:29Z,42.805,6.029,13.2996,4.60028,2470.427,2021-10-28T04:01:53Z
2021-10-28T02:03:32Z,42.805,6.029,13.3000,4.60032,2470.413,2021-10-28T04:04:56Z
2021-10-28T02:06:35Z,42.805,6.029,13.2994,4.60022,2470.39,2021-10-28T04:07:59Z
2021-10-28T02:09:38Z,42.805,6.029,13.2998,4.60023,2470.413,2021-10-28T04:11:02Z
2021-10-28T02:12:41Z,42.805,6.029,13.2993,4.60026,2470.404,2021-10-28T04:14:06Z
2021-10-28T02:15:44Z,42.805,6.029,13.3000,4.60027,2470.404,2021-10-28T04:17:09Z
2021-10-28T02:18:47Z,42.805,6.029,13.2998,4.60031,2470.39,2021-10-28T04:20:12Z
2021-10-28T02:21:50Z,42.805,6.029,13.2998,4.60038,2470.427,2021-10-28T04:23:15Z
2021-10-28T02:24:54Z,42.805,6.029,13.2996,4.60036,2470.39,2021-10-28T04:26:18Z
2021-10-28T02:27:57Z,42.805,6.029,13.2998,4.60026,2470.404,2021-10-28T04:29:21Z
2021-10-28T02:31:00Z,42.805,6.029,13.3001,4.60024,2470.39,2021-10-28T04:32:24Z
2021-10-28T02:34:03Z,42.805,6.029,13.2995,4.60021,2470.39,2021-10-28T04:35:27Z
2021-10-28T02:37:06Z,42.805,6.029,13.3000,4.60021,2470.39,2021-10-28T04:38:31Z
2021-10-28T02:40:09Z,42.805,6.029,13.2998,4.60021,2470.427,2021-10-28T04:41:34Z
2021-10-28T02:43:12Z,42.805,6.029,13.2996,4.60019,2470.427,2021-10-28T04:44:37Z
2021-10-28T02:46:15Z,42.805,6.029,13.2996,4.60023,2470.413,2021-10-28T04:47:40Z
2021-10-28T02:49:19Z,42.805,6.029,13.3000,4.60024,2470.413,2021-10-28T04:50:43Z
2021-10-28T02:52:22Z,42.805,6.029,13.2998,4.60023,2470.427,2021-10-28T04:53:46Z
2021-10-28T02:55:25Z,42.805,6.029,13.2997,4.60033,2470.404,2021-10-28T04:56:49Z
2021-10-28T02:58:28Z,42.805,6.029,13.2999,4.60039,2470.427,2021-10-28T04:59:52Z
2021-10-28T03:01:31Z,42.805,6.029,13.2999,4.60030,2470.427,2021-10-28T05:02:56Z
2021-10-28T03:04:34Z,42.805,6.029,13.2994,4.60025,2470.39,2021-10-28T05:05:59Z
2021-10-28T03:07:37Z,42.805,6.029,13.2998,4.60024,2470.427,2021-10-28T05:09:02Z
2021-10-28T03:10:40Z,42.805,6.029,13.2998,4.60021,2470.404,2021-10-28T05:12:05Z
2021-10-28T03:13:44Z,42.805,6.029,13.2998,4.60024,2470.413,2021-10-28T05:15:08Z
2021-10-28T03:16:47Z,42.805,6.029,13.2997,4.60032,2470.38,2021-10-28T05:18:11Z
2021-10-28T03:19:50Z,42.805,6.029,13.2999,4.60026,2470.413,2021-10-28T05:21:14Z
2021-10-28T03:22:53Z,42.805,6.029,13.3001,4.60035,2470.39,2021-10-28T05:24:17Z
2021-10-28T03:25:56Z,42.805,6.029,13.2997,4.60029,2470.413,2021-10-28T05:27:21Z
2021-10-28T03:28:59Z,42.805,6.029,13.2998,4.60022,2470.404,2021-10-28T05:30:24Z
2021-10-28T03:32:02Z,42.805,6.029,13.2999,4.60019,2470.413,2021-10-28T05:33:27Z
2021-10-28T03:35:05Z,42.805,6.029,13.2997,4.60026,2470.366,2021-10-28T05:36:30Z
2021-10-28T03:38:09Z,42.805,6.029,13.3002,4.60029,2470.404,2021-10-28T05:39:33Z
2021-10-28T03:41:12Z,42.805,6.029,13.2998,4.60021,2470.366,2021-10-28T05:42:36Z
2021-10-28T03:44:15Z,42.805,6.029,13.3003,4.60023,2470.404,2021-10-28T05:45:39Z
2021-10-28T03:47:18Z,42.805,6.029,13.3005,4.60026,2470.404,2021-10-28T05:48:42Z
2021-10-28T03:50:21Z,42.805,6.029,13.3001,4.60028,2470.413,2021-10-28T05:51:46Z
2021-10-28T03:53:24Z,42.805,6.029,13.2999,4.60029,2470.404,2021-10-28T05:54:49Z
2021-10-28T03:56:27Z,42.805,6.029,13.3006,4.60031,2470.404,2021-10-28T05:57:52Z
2021-10-28T03:59:30Z,42.805,6.029,13.2997,4.60031,2470.366,2021-10-28T06:00:55Z
2021-10-28T04:02:34Z,42.805,6.029,13.3000,4.60036,2470.427,2021-10-28T06:03:58Z
2021-10-28T04:05:37Z,42.805,6.029,13.2995,4.60024,2470.39,2021-10-28T06:07:01Z
2021-10-28T04:08:40Z,42.805,6.029,13.3003,4.60035,2470.413,2021-10-28T06:10:04Z
2021-10-28T04:11:43Z,42.805,6.029,13.3005,4.60031,2470.39,2021-10-28T06:13:07Z
2021-10-28T04:14:46Z,42.805,6.029,13.3000,4.60035,2470.366,2021-10-28T06:16:10Z
2021-10-28T04:17:49Z,42.805,6.029,13.3002,4.60036,2470.404,2021-10-28T06:19:14Z
2021-10-28T04:20:52Z,42.805,6.029,13.3000,4.60031,2470.366,2021-10-28T06:22:17Z
2021-10-28T04:23:55Z,42.805,6.029,13.3000,4.60021,2470.413,2021-10-28T06:25:20Z
2021-10-28T04:26:58Z,42.805,6.029,13.2994,4.60024,2470.413,2021-10-28T06:28:23Z
2021-10-28T04:30:02Z,42.805,6.029,13.3000,4.60021,2470.39,2021-10-28T06:31:26Z
2021-10-28T04:33:05Z,42.805,6.029,13.2999,4.60023,2470.343,2021-10-28T06:34:29Z
2021-10-28T04:36:08Z,42.805,6.029,13.3006,4.60035,2470.404,2021-10-28T06:37:32Z
2021-10-28T04:39:11Z,42.805,6.029,13.3003,4.60037,2470.404,2021-10-28T06:40:35Z
2021-10-28T04:42:14Z,42.805,6.029,13.3002,4.60028,2470.413,2021-10-28T06:43:39Z
2021-10-28T04:45:17Z,42.805,6.029,13.3009,4.60039,2470.38,2021-10-28T06:46:42Z
2021-10-28T04:48:20Z,42.805,6.029,13.2998,4.60029,2470.366,2021-10-28T06:49:45Z
2021-10-28T04:51:23Z,42.805,6.029,13.2998,4.60029,2470.39,2021-10-28T06:52:48Z
2021-10-28T04:54:27Z,42.805,6.029,13.2996,4.60031,2470.366,2021-10-28T06:55:51Z
2021-10-28T04:57:30Z,42.805,6.029,13.2999,4.60039,2470.376,2021-10-28T06:58:54Z
2021-10-28T05:00:33Z,42.805,6.029,13.3000,4.60028,2470.39,2021-10-28T07:01:57Z
2021-10-28T05:03:36Z,42.805,6.029,13.2999,4.60038,2470.39,2021-10-28T07:05:00Z
2021-10-28T05:06:39Z,42.805,6.029,13.3004,4.60029,2470.39,2021-10-28T07:08:04Z
2021-10-28T05:09:42Z,42.805,6.029,13.3001,4.60029,2470.39,2021-10-28T07:11:07Z
2021-10-28T05:12:45Z,42.805,6.029,13.3000,4.60026,2470.404,2021-10-28T07:14:10Z
2021-10-28T05:15:48Z,42.805,6.029,13.3000,4.60041,2470.413,2021-10-28T07:17:13Z
2021-10-28T05:18:52Z,42.805,6.029,13.3003,4.60034,2470.427,2021-10-28T07:20:16Z
2021-10-28T05:21:55Z,42.805,6.029,13.3001,4.60021,2470.39,2021-10-28T07:23:19Z
2021-10-28T05:24:58Z,42.805,6.029,13.3001,4.60024,2470.39,2021-10-28T07:26:22Z
2021-10-28T05:28:01Z,42.805,6.029,13.2998,4.60024,2470.404,2021-10-28T07:29:25Z
2021-10-28T05:31:04Z,42.805,6.029,13.2999,4.60026,2470.39,2021-10-28T07:32:29Z
2021-10-28T05:34:07Z,42.805,6.029,13.3001,4.60024,2470.39,2021-10-28T07:35:32Z
2021-10-28T05:37:10Z,42.805,6.029,13.3006,4.60028,2470.343,2021-10-28T07:38:35Z
2021-10-28T05:40:13Z,42.805,6.029,13.3004,4.60029,2470.39,2021-10-28T07:41:38Z
2021-10-28T05:43:17Z,42.805,6.029,13.2998,4.60028,2470.343,2021-10-28T07:44:41Z
2021-10-28T05:46:20Z,42.805,6.029,13.2996,4.60023,2470.38,2021-10-28T07:47:44Z
2021-10-28T05:49:23Z,42.805,6.029,13.2995,4.60025,2470.366,2021-10-28T07:50:47Z
2021-10-28T05:52:26Z,42.805,6.029,13.2997,4.60025,2470.366,2021-10-28T07:53:50Z
2021-10-28T05:55:29Z,42.805,6.029,13.2997,4.60030,2470.39,2021-10-28T07:56:54Z
2021-10-28T05:58:32Z,42.805,6.029,13.2999,4.60026,2470.39,2021-10-28T07:59:57Z
2021-10-28T06:01:35Z,42.805,6.029,13.2998,4.60026,2470.366,2021-10-28T08:03:00Z
2021-10-28T06:04:38Z,42.805,6.029,13.3004,4.60033,2470.404,2021-10-28T08:06:03Z
2021-10-28T06:07:42Z,42.805,6.029,13.2999,4.60021,2470.404,2021-10-28T08:09:06Z
2021-10-28T06:10:45Z,42.805,6.029,13.2998,4.60026,2470.366,2021-10-28T08:12:09Z
2021-10-28T06:13:48Z,42.805,6.029,13.3000,4.60051,2470.413,2021-10-28T08:15:12Z
2021-10-28T06:16:51Z,42.805,6.029,13.2995,4.60024,2470.404,2021-10-28T08:18:15Z
2021-10-28T06:19:54Z,42.805,6.029,13.3000,4.60025,2470.38,2021-10-28T08:21:19Z
2021-10-28T06:22:57Z,42.805,6.029,13.2996,4.60026,2470.404,2021-10-28T08:24:22Z
2021-10-28T06:26:00Z,42.805,6.029,13.3002,4.60031,2470.343,2021-10-28T08:27:25Z
2021-10-28T06:29:03Z,42.805,6.029,13.2996,4.60026,2470.404,2021-10-28T08:30:28Z
2021-10-28T06:32:07Z,42.805,6.029,13.2998,4.60029,2470.39,2021-10-28T08:33:31Z
2021-10-28T06:35:10Z,42.805,6.029,13.2993,4.60031,2470.38,2021-10-28T08:36:34Z
2021-10-28T06:38:13Z,42.805,6.029,13.2997,4.60024,2470.39,2021-10-28T08:39:37Z
2021-10-28T06:41:16Z,42.805,6.029,13.3004,4.60025,2470.39,2021-10-28T08:42:40Z
2021-10-28T06:44:19Z,42.805,6.029,13.2998,4.60024,2470.39,2021-10-28T08:45:44Z
2021-10-28T06:47:22Z,42.805,6.029,13.3004,4.60024,2470.39,2021-10-28T08:48:47Z
2021-10-28T06:50:25Z,42.805,6.029,13.3000,4.60025,2470.437,2021-10-28T08:51:50Z
2021-10-28T06:53:28Z,42.805,6.029,13.3007,4.60037,2470.39,2021-10-28T08:54:53Z
2021-10-28T06:56:32Z,42.805,6.029,13.3004,4.60029,2470.413,2021-10-28T08:57:56Z
2021-10-28T06:59:35Z,42.805,6.029,13.3003,4.60029,2470.404,2021-10-28T09:00:59Z
2021-10-28T07:02:38Z,42.805,6.029,13.2998,4.60026,2470.413,2021-10-28T09:04:02Z
2021-10-28T07:05:41Z,42.805,6.029,13.3000,4.60040,2470.39,2021-10-28T09:07:05Z
2021-10-28T07:08:44Z,42.805,6.029,13.2995,4.60026,2470.427,2021-10-28T09:10:09Z
2021-10-28T07:11:47Z,42.805,6.029,13.3001,4.60024,2470.427,2021-10-28T09:13:12Z
2021-10-28T07:14:50Z,42.805,6.029,13.2999,4.60027,2470.427,2021-10-28T09:16:15Z
2021-10-28T07:17:53Z,42.805,6.029,13.2996,4.60026,2470.437,2021-10-28T09:19:18Z
2021-10-28T07:20:57Z,42.805,6.029,13.3002,4.60035,2470.427,2021-10-28T09:22:21Z
2021-10-28T07:24:00Z,42.805,6.029,13.3010,4.60039,2470.413,2021-10-28T09:25:24Z
2021-10-28T07:27:03Z,42.805,6.029,13.2998,4.60022,2470.413,2021-10-28T09:28:27Z
2021-10-28T07:30:06Z,42.805,6.029,13.2998,4.60022,2470.413,2021-10-28T09:31:30Z
2021-10-28T07:33:09Z,42.805,6.029,13.2996,4.60032,2470.437,2021-10-28T09:34:34Z
2021-10-28T07:36:12Z,42.805,6.029,13.3001,4.60027,2470.413,2021-10-28T09:37:37Z
2021-10-28T07:39:15Z,42.805,6.029,13.2996,4.60025,2470.413,2021-10-28T09:40:40Z
2021-10-28T07:42:18Z,42.805,6.029,13.3000,4.60026,2470.39,2021-10-28T09:43:43Z
2021-10-28T07:45:22Z,42.805,6.029,13.2997,4.60020,2470.437,2021-10-28T09:46:46Z
2021-10-28T07:48:25Z,42.805,6.029,13.3002,4.60028,2470.39,2021-10-28T09:49:49Z
2021-10-28T07:51:28Z,42.805,6.029,13.2996,4.60028,2470.413,2021-10-28T09:52:52Z
2021-10-28T07:54:31Z,42.805,6.029,13.3001,4.60031,2470.413,2021-10-28T09:55:55Z
2021-10-28T07:57:34Z,42.805,6.029,13.2996,4.60024,2470.413,2021-10-28T09:58:59Z
2021-10-28T08:00:37Z,42.805,6.029,13.2998,4.60033,2470.39,2021-10-28T10:02:02Z
2021-10-28T08:03:40Z,42.805,6.029,13.3000,4.60047,2470.413,2021-10-28T10:05:05Z
2021-10-28T08:06:43Z,42.805,6.029,13.2999,4.60029,2470.437,2021-10-28T10:08:08Z
2021-10-28T08:09:47Z,42.805,6.029,13.3005,4.60028,2470.437,2021-10-28T10:11:11Z
2021-10-28T08:12:50Z,42.805,6.029,13.2999,4.60029,2470.427,2021-10-28T10:14:14Z
2021-10-28T08:15:53Z,42.805,6.029,13.2995,4.60025,2470.413,2021-10-28T10:17:17Z
2021-10-28T08:18:56Z,42.805,6.029,13.2999,4.60026,2470.413,2021-10-28T10:20:20Z
2021-10-28T08:21:59Z,42.805,6.029,13.2998,4.60026,2470.437,2021-10-28T10:23:24Z
2021-10-28T08:25:02Z,42.805,6.029,13.2996,4.60021,2470.39,2021-10-28T10:26:27Z
2021-10-28T08:28:05Z,42.805,6.029,13.2995,4.60029,2470.46,2021-10-28T10:29:30Z
2021-10-28T08:31:08Z,42.805,6.029,13.2997,4.60032,2470.413,2021-10-28T10:32:33Z
2021-10-28T08:34:12Z,42.805,6.029,13.2997,4.60025,2470.437,2021-10-28T10:35:36Z
2021-10-28T08:37:15Z,42.805,6.029,13.3001,4.60026,2470.474,2021-10-28T10:38:39Z
2021-10-28T08:40:18Z,42.805,6.029,13.3005,4.60024,2470.427,2021-10-28T10:41:42Z
2021-10-28T08:43:21Z,42.805,6.029,13.3004,4.60052,2470.437,2021-10-28T10:44:45Z
2021-10-28T08:46:24Z,42.805,6.029,13.3008,4.60029,2470.46,2021-10-28T10:47:49Z
2021-10-28T08:49:27Z,42.805,6.029,13.3000,4.60047,2470.437,2021-10-28T10:50:52Z
2021-10-28T08:52:30Z,42.805,6.029,13.3001,4.60048,2470.45,2021-10-28T10:53:55Z
2021-10-28T08:55:33Z,42.805,6.029,13.2999,4.60031,2470.474,2021-10-28T10:56:58Z
2021-10-28T08:58:37Z,42.805,6.029,13.3000,4.60023,2470.45,2021-10-28T11:00:01Z
2021-10-28T09:01:40Z,42.805,6.029,13.3000,4.60033,2470.474,2021-10-28T11:03:04Z
2021-10-28T09:04:43Z,42.805,6.029,13.2995,4.60029,2470.437,2021-10-28T11:06:07Z
2021-10-28T09:07:46Z,42.805,6.029,13.2998,4.60033,2470.46,2021-10-28T11:09:10Z
2021-10-28T09:10:49Z,42.805,6.029,13.2999,4.60027,2470.413,2021-10-28T11:12:14Z
2021-10-28T09:13:52Z,42.805,6.029,13.3004,4.60033,2470.483,2021-10-28T11:15:17Z
2021-10-28T09:16:55Z,42.805,6.029,13.3004,4.60043,2470.46,2021-10-28T11:18:20Z
2021-10-28T09:19:58Z,42.805,6.029,13.2999,4.60029,2470.46,2021-10-28T11:21:23Z
2021-10-28T09:23:02Z,42.805,6.029,13.3001,4.60028,2470.474,2021-10-28T11:24:26Z
2021-10-28T09:26:05Z,42.805,6.029,13.2998,4.60023,2470.46,2021-10-28T11:27:29Z
2021-10-28T09:29:08Z,42.805,6.029,13.3004,4.60019,2470.483,2021-10-28T11:30:32Z
2021-10-28T09:32:11Z,42.805,6.029,13.2998,4.60022,2470.46,2021-10-28T11:33:35Z
2021-10-28T09:35:14Z,42.805,6.029,13.3005,4.60031,2470.46,2021-10-28T11:36:39Z
2021-10-28T09:38:17Z,42.805,6.029,13.3000,4.60033,2470.474,2021-10-28T11:39:42Z
2021-10-28T09:41:20Z,42.805,6.029,13.3001,4.60043,2470.497,2021-10-28T11:42:45Z
2021-10-28T09:44:23Z,42.805,6.029,13.3007,4.60033,2470.46,2021-10-28T11:45:48Z
2021-10-28T09:47:27Z,42.805,6.029,13.3000,4.60031,2470.507,2021-10-28T11:48:51Z
2021-10-28T09:50:30Z,42.805,6.029,13.3004,4.60036,2470.507,2021-10-28T11:51:54Z
2021-10-28T09:53:33Z,42.805,6.029,13.3000,4.60031,2470.483,2021-10-28T11:54:57Z
2021-10-28T09:56:36Z,42.805,6.029,13.3001,4.60024,2470.483,2021-10-28T11:58:00Z
2021-10-28T09:59:39Z,42.805,6.029,13.3007,4.60045,2470.497,2021-10-28T12:01:04Z
2021-10-28T10:02:42Z,42.805,6.029,13.3005,4.60028,2470.497,2021-10-28T12:04:07Z
2021-10-28T10:05:45Z,42.805,6.029,13.3010,4.60041,2470.52,2021-10-28T12:07:10Z
2021-10-28T10:08:48Z,42.805,6.029,13.3007,4.60026,2470.474,2021-10-28T12:10:13Z
2021-10-28T10:11:52Z,42.805,6.029,13.2995,4.60023,2470.483,2021-10-28T12:13:16Z
2021-10-28T10:14:55Z,42.805,6.029,13.3000,4.60029,2470.497,2021-10-28T12:16:19Z
2021-10-28T10:17:58Z,42.805,6.029,13.3003,4.60028,2470.446,2021-10-28T12:19:22Z
2021-10-28T10:21:01Z,42.805,6.029,13.2998,4.60024,2470.507,2021-10-28T12:22:25Z
2021-10-28T10:24:04Z,42.805,6.029,13.3000,4.60029,2470.507,2021-10-28T12:25:29Z
2021-10-28T10:27:07Z,42.805,6.029,13.3003,4.60032,2470.544,2021-10-28T12:28:32Z
2021-10-28T10:30:10Z,42.805,6.029,13.2994,4.60023,2470.52,2021-10-28T12:31:35Z
2021-10-28T10:33:13Z,42.805,6.029,13.3000,4.60024,2470.483,2021-10-28T12:34:38Z
2021-10-28T10:36:17Z,42.805,6.029,13.2998,4.60033,2470.507,2021-10-28T12:37:41Z
2021-10-28T10:39:20Z,42.805,6.029,13.2995,4.60025,2470.544,2021-10-28T12:40:44Z
2021-10-28T10:42:23Z,42.805,6.029,13.3001,4.60024,2470.53,2021-10-28T12:43:47Z
2021-10-28T10:45:26Z,42.805,6.029,13.3003,4.60029,2470.53,2021-10-28T12:46:51Z
2021-10-28T10:48:29Z,42.805,6.029,13.2997,4.60027,2470.52,2021-10-28T12:49:54Z
2021-10-28T10:51:32Z,42.805,6.029,13.3003,4.60050,2470.507,2021-10-28T12:52:57Z
2021-10-28T10:54:35Z,42.805,6.029,13.3007,4.60049,2470.544,2021-10-28T12:56:00Z
2021-10-28T10:57:39Z,42.805,6.029,13.3000,4.60034,2470.52,2021-10-28T12:59:03Z
2021-10-28T11:00:42Z,42.805,6.029,13.2999,4.60029,2470.544,2021-10-28T13:02:06Z
2021-10-28T11:03:45Z,42.805,6.029,13.2999,4.60033,2470.544,2021-10-28T13:05:09Z
2021-10-28T11:06:48Z,42.805,6.029,13.3000,4.60033,2470.483,2021-10-28T13:08:12Z
2021-10-28T11:09:51Z,42.805,6.029,13.3004,4.60039,2470.544,2021-10-28T13:11:16Z
2021-10-28T11:12:54Z,42.805,6.029,13.3002,4.60033,2470.507,2021-10-28T13:14:19Z
2021-10-28T11:15:57Z,42.805,6.029,13.2999,4.60036,2470.52,2021-10-28T13:17:22Z
2021-10-28T11:19:00Z,42.805,6.029,13.3000,4.60036,2470.53,2021-10-28T13:20:25Z
2021-10-28T11:22:04Z,42.805,6.029,13.2997,4.60029,2470.52,2021-10-28T13:23:28Z
2021-10-28T11:25:07Z,42.805,6.029,13.3000,4.60030,2470.553,2021-10-28T13:26:31Z
2021-10-28T11:28:10Z,42.805,6.029,13.3000,4.60034,2470.52,2021-10-28T13:29:34Z
2021-10-28T11:31:13Z,42.805,6.029,13.3003,4.60035,2470.507,2021-10-28T13:32:37Z
2021-10-28T11:34:16Z,42.805,6.029,13.3005,4.60045,2470.483,2021-10-28T13:35:41Z
2021-10-28T11:37:19Z,42.805,6.029,13.3005,4.60038,2470.53,2021-10-28T13:38:44Z
2021-10-28T11:40:22Z,42.805,6.029,13.3000,4.60029,2470.497,2021-10-28T13:41:47Z
2021-10-28T11:43:25Z,42.805,6.029,13.2999,4.60027,2470.483,2021-10-28T13:44:50Z
2021-10-28T11:46:29Z,42.805,6.029,13.2996,4.60026,2470.483,2021-10-28T13:47:53Z
2021-10-28T11:49:32Z,42.805,6.029,13.3005,4.60049,2470.53,2021-10-28T13:50:56Z
2021-10-28T11:52:35Z,42.805,6.029,13.3003,4.60025,2470.52,2021-10-28T13:53:59Z
2021-10-28T11:55:38Z,42.805,6.029,13.2995,4.60026,2470.544,2021-10-28T13:57:03Z
2021-10-28T11:58:41Z,42.805,6.029,13.2998,4.60044,2470.497,2021-10-28T14:00:06Z
2021-10-28T12:01:44Z,42.805,6.029,13.3004,4.60035,2470.493,2021-10-28T14:03:09Z
2021-10-28T12:04:47Z,42.805,6.029,13.2998,4.60035,2470.483,2021-10-28T14:06:12Z
2021-10-28T12:07:50Z,42.805,6.029,13.2998,4.60026,2470.52,2021-10-28T14:09:15Z
2021-10-28T12:10:54Z,42.805,6.029,13.3004,4.60034,2470.507,2021-10-28T14:12:18Z
2021-10-28T12:13:57Z,42.805,6.029,13.2996,4.60025,2470.544,2021-10-28T14:15:21Z
2021-10-28T12:17:00Z,42.805,6.029,13.2999,4.60023,2470.483,2021-10-28T14:18:24Z
2021-10-28T12:20:03Z,42.805,6.029,13.3000,4.60027,2470.507,2021-10-28T14:21:27Z
2021-10-28T12:23:06Z,42.805,6.029,13.2997,4.60027,2470.544,2021-10-28T14:24:31Z
2021-10-28T12:26:09Z,42.805,6.029,13.2995,4.60023,2470.507,2021-10-28T14:27:34Z
2021-10-28T12:29:12Z,42.805,6.029,13.2998,4.60029,2470.507,2021-10-28T14:30:37Z
2021-10-28T12:32:16Z,42.805,6.029,13.2994,4.60025,2470.52,2021-10-28T14:33:40Z
2021-10-28T12:35:19Z,42.805,6.029,13.2994,4.60023,2470.483,2021-10-28T14:36:43Z
2021-10-28T12:38:22Z,42.805,6.029,13.2997,4.60027,2470.53,2021-10-28T14:39:46Z
2021-10-28T12:41:25Z,42.805,6.029,13.2996,4.60034,2470.53,2021-10-28T14:42:49Z
2021-10-28T12:44:28Z,42.805,6.029,13.3000,4.60032,2470.52,2021-10-28T14:45:53Z
2021-10-28T12:47:31Z,42.805,6.029,13.2998,4.60042,2470.52,2021-10-28T14:48:56Z
2021-10-28T12:50:34Z,42.805,6.029,13.3000,4.60026,2470.53,2021-10-28T14:51:59Z
2021-10-28T12:53:37Z,42.805,6.029,13.2999,4.60033,2470.507,2021-10-28T14:55:02Z
2021-10-28T12:56:41Z,42.805,6.029,13.2993,4.60029,2470.507,2021-10-28T14:58:05Z
2021-10-28T12:59:44Z,42.805,6.029,13.3006,4.60036,2470.507,2021-10-28T15:01:08Z
2021-10-28T13:02:47Z,42.805,6.029,13.3004,4.60027,2470.53,2021-10-28T15:04:11Z
2021-10-28T13:05:50Z,42.805,6.029,13.2995,4.60029,2470.507,2021-10-28T15:07:14Z
2021-10-28T13:08:53Z,42.805,6.029,13.3000,4.60039,2470.483,2021-10-28T15:10:18Z
2021-10-28T13:11:56Z,42.805,6.029,13.3000,4.60033,2470.507,2021-10-28T15:13:21Z
2021-10-28T13:14:59Z,42.805,6.029,13.2997,4.60051,2470.507,2021-10-28T15:16:24Z
2021-10-28T13:18:02Z,42.805,6.029,13.3001,4.60052,2470.497,2021-10-28T15:19:27Z
2021-10-28T13:21:06Z,42.805,6.029,13.3014,4.60032,2470.497,2021-10-28T15:22:30Z
2021-10-28T13:24:09Z,42.805,6.029,13.3010,4.60038,2470.483,2021-10-28T15:25:33Z
2021-10-28T13:27:12Z,42.805,6.029,13.3000,4.60047,2470.483,2021-10-28T15:28:36Z
2021-10-28T13:30:15Z,42.805,6.029,13.3000,4.60049,2470.483,2021-10-28T15:31:39Z
2021-10-28T13:33:18Z,42.805,6.029,13.3003,4.60039,2470.507,2021-10-28T15:34:43Z
2021-10-28T13:36:21Z,42.805,6.029,13.3004,4.60031,2470.544,2021-10-28T15:37:46Z
2021-10-28T13:39:24Z,42.805,6.029,13.3006,4.60037,2470.53,2021-10-28T15:40:49Z
2021-10-28T13:42:27Z,42.805,6.029,13.3002,4.60035,2470.507,2021-10-28T15:43:52Z
2021-10-28T13:45:31Z,42.805,6.029,13.3003,4.60044,2470.507,2021-10-28T15:46:55Z
2021-10-28T13:48:34Z,42.805,6.029,13.3003,4.60029,2470.483,2021-10-28T15:49:58Z
2021-10-28T13:51:37Z,42.805,6.029,13.2996,4.60026,2470.497,2021-10-28T15:53:01Z
2021-10-28T13:54:40Z,42.805,6.029,13.2997,4.60024,2470.52,2021-10-28T15:56:04Z
2021-10-28T13:57:43Z,42.805,6.029,13.3002,4.60026,2470.483,2021-10-28T15:59:08Z
2021-10-28T14:00:46Z,42.805,6.029,13.2999,4.60031,2470.52,2021-10-28T16:02:11Z
2021-10-28T14:03:49Z,42.805,6.029,13.2999,4.60039,2470.483,2021-10-28T16:05:14Z
2021-10-28T14:06:52Z,42.805,6.029,13.2998,4.60032,2470.52,2021-10-28T16:08:17Z
2021-10-28T14:09:56Z,42.805,6.029,13.2998,4.60039,2470.507,2021-10-28T16:11:20Z
2021-10-28T14:12:59Z,42.805,6.029,13.3000,4.60022,2470.483,2021-10-28T16:14:23Z
2021-10-28T14:16:02Z,42.805,6.029,13.3004,4.60044,2470.507,2021-10-28T16:17:26Z
2021-10-28T14:19:05Z,42.805,6.029,13.3003,4.60030,2470.507,2021-10-28T16:20:29Z
2021-10-28T14:22:08Z,42.805,6.029,13.2996,4.60024,2470.507,2021-10-28T16:23:33Z
2021-10-28T14:25:11Z,42.805,6.029,13.2997,4.60038,2470.52,2021-10-28T16:26:36Z
2021-10-28T14:28:14Z,42.805,6.029,13.2994,4.60028,2470.483,2021-10-28T16:29:39Z
2021-10-28T14:31:17Z,42.805,6.029,13.3004,4.60036,2470.474,2021-10-28T16:32:42Z
2021-10-28T14:34:21Z,42.805,6.029,13.3000,4.60039,2470.497,2021-10-28T16:35:45Z
2021-10-28T14:37:24Z,42.805,6.029,13.3003,4.60027,2470.53,2021-10-28T16:38:48Z
2021-10-28T14:40:27Z,42.805,6.029,13.3000,4.60044,2470.497,2021-10-28T16:41:51Z
2021-10-28T14:43:30Z,42.805,6.029,13.3009,4.60046,2470.497,2021-10-28T16:44:54Z
2021-10-28T14:46:33Z,42.805,6.029,13.3006,4.60031,2470.497,2021-10-28T16:47:58Z
2021-10-28T14:49:36Z,42.805,6.029,13.2997,4.60030,2470.483,2021-10-28T16:51:01Z
2021-10-28T14:52:39Z,42.805,6.029,13.3006,4.60035,2470.46,2021-10-28T16:54:04Z
2021-10-28T14:55:42Z,42.805,6.029,13.3001,4.60050,2470.497,2021-10-28T16:57:07Z
2021-10-28T14:58:46Z,42.805,6.029,13.2998,4.60033,2470.483,2021-10-28T17:00:10Z
2021-10-28T15:01:49Z,42.805,6.029,13.2998,4.60030,2470.507,2021-10-28T17:03:13Z